Location: Arcadia
(34.1397°N, 118.0353°W)
Time: 22:58:54
(UTC+00:00)

IRS-1D - Pass Details

Date: 08 September 2024
Orbit: 738 x 812 km, 98.8° (Epoch: 13 October)

Event Time Altitude Azimuth Distance (km) Brightness Sun altitude
Rises 12:04:06 0° 8° (N) 3,326 7.2 -18.3°
Reaches altitude 10° 12:06:28 10° 5° (N) 2,397 6.4 -17.8°
Maximum altitude 12:11:40 59° 287° (WNW) 934 3.6 -16.8°
Enters shadow 12:15:53 16° 211° (SSW) 2,018 5.2 -16.0°
